Preview of NWS' New Version of Forecast
This preview is not operational and should not be used for support decisions.

Regional Weather Roundup (RWR)

Issued by Gray - Portland, ME (GYX)

                            
455 
ASUS41 KGYX 242210
RWRGYX
WEATHER ROUNDUP FOR MAINE AND NEW HAMPSHIRE
NATIONAL WEATHER SERVICE GRAY ME
600 PM EDT THU MAY 24 2018

MEZ002-005-006-010-012-015-018-020-021-024-026-027-029-242300-
MAINE
  
CITY           SKY/WX    TMP DP  RH WIND       PRES   REMARKS
PORTLAND       FAIR      56  48  74 S15G25    30.05F                  
SANFORD        FAIR      63  49  60 S10G17    30.03F                  
BAR HARBOR     FAIR      52  39  61 S16G23    30.05F                  
WISCASSET      FAIR      56  45  66 S8        30.06F                  
ROCKLAND       FAIR      52  43  71 S13G18    30.06F                  
FRYEBURG       FAIR      73  36  25 NW9       30.00F                  
LEWISTONAUBURN FAIR      59  48  67 SE13      30.02F                  
AUGUSTA        FAIR      57  44  62 S12G22    30.02F                  
WATERVILLE     FAIR      60  46  59 S8        29.98F                  
BANGOR         FAIR      56  41  57 S17       30.00F                  
GREENVILLE       N/A     62  28  27 NW6       29.95F                  
MILLINOCKET    CLOUDY    64  29  26 W3        29.95F                  
HOULTON        CLOUDY    62  30  29 W7        29.91F                  
PRESQUE ISLE   CLOUDY    62  27  26 W10       29.91F                  
FRENCHVILLE    CLOUDY    58  22  24 W10       29.90F                  
CARIBOU        CLOUDY    61  25  25 VRB6      29.89F                  
$$

NHZ002-005-008-009-011-012-014-242300-
NEW HAMPSHIRE
  
CITY           SKY/WX    TMP DP  RH WIND       PRES   REMARKS
PORTSMOUTH     MOSUNNY   61  49  63 SE12      30.03F                  
ROCHESTER      FAIR      64  51  62 SE8       30.02F                  
NASHUA         FAIR      77  33  20 W8G16     30.03F                  
MANCHESTER     FAIR      79  29  16 NW10G17   30.02S                  
CONCORD        FAIR      76  33  21 NW13G22   30.03S                  
LACONIA        FAIR      72  33  24 W6        30.03S                  
PLYMOUTH       FAIR      72  31  21 W7        30.02F                  
BERLIN         FAIR      69  35  28 VRB6      30.01F                  
WHITEFIELD     FAIR      69  35  28 W12       30.03F                  
JAFFREY        FAIR      75  35  23 W6        30.06F                  
KEENE          FAIR      80  36  20 NW6       30.03F                  
LEBANON        FAIR      77  34  21 CALM      30.02F                  
MT WASHINGTON  MOSUNNY   41  27  56 NW48G56     N/A                   
$$

VTZ005-007-008-242300-
VERMONT
  
CITY           SKY/WX    TMP DP  RH WIND       PRES   REMARKS
ST JOHNSBURY     N/A     70  33  25 MISG      30.01F                  
MONTPELIER     FAIR      69  34  27 N5        30.07F                  
BURLINGTON     FAIR      75  32  20 CALM      30.02F                  
$$

MAZ007-012-024-CTZ003-RIZ002-NYZ038-NYZ072-242300-
SOUTHERN NEW ENGLAND AND NY
  
CITY           SKY/WX    TMP DP  RH WIND       PRES   REMARKS
BOSTON         FAIR      68  52  56 S12       30.05F                  
WORCESTER      FAIR      74  37  26 W12       30.07S                  
NANTUCKET      FAIR      54  45  71 SE13      30.12F                  
PROVIDENCE     FAIR      60  47  61 S17       30.12R                  
HARTFORD       FAIR      81  37  20 CALM      30.04F                  
ALBANY         FAIR      78  43  28 W14       30.04F                  
NEW YORK CITY  FAIR      82  41  23 S15G22    30.05F                  
$$

ANZ081-ANZ082-ANZ150-NHZ014-MEZ023>029-242300-
COASTAL MARINE OBSERVATIONS
  
STATION/POSITION TIME  TEMP    WIND        PRES    WAVE
                       AIR SEA DIR/SP/G            HT/PER
                 (UTC) (F)     (DEG/KT/KT) (MB)    (FT/S)
MOUNT DESERT ROC 2200   49     180/ 17/ 19 1018.3F
MATINICUS ROCK   2200   51     180/ 18/ 20 1017.8F
ISLE OF SHOALS   2200   54     170/ 22/ 24 1017.1F
JEFFREYS LEDGE   2136      54                N/A     4/ 3
CASHES LEDGE BUO 2150   51 52              1017.9F   3/ 3
$$

.............KEY..............
   WCI - WIND CHILL
   TC  - TEMPERATURE IN CELSIUS
   VSB - VISIBILITY IN MILES
   HX  - HEAT INDEX
   FAIR- INDICATES FEW OR NO CLOUDS BELOW 12,000 FT, WITH NO 
         SIGNIFICANT WEATHER AND/OR OBSTRUCTIONS TO VISIBILITY.